THORAD DELTA 1 DEB, 8167

Orbit data source: Space-Track

THORAD DELTA 1 DEB, 8167 is space debris in SSO originally from a launch on Fri, 15 Nov 1974 UTC launched from the Air Force Western Test Range (AFWTR). Debris objects in space refer to the collection of defunct objects orbiting the Earth. Examples of debris include non-operational satellites, rocket bodies, and fragments generated from explosions, collisions, or faulty payload assembly.

Loading next visibility...
Identifier
8167, 1974-089AH
Orbit
SSO
Last TLE update
12 hours ago
Origin
Manufacturer
Unknown
Mission
Spacecraft
Bus & Motor
Unknown
Mass
Unknown
Launch date (UTC)
1974-11-15 (51 years ago)
Launch vehicle
Unknown
Launch site
Air Force Western Test Range (AFWTR)
Object type
Payload
Rocket body
Debris
Shape & HBR
Unknown
Radar Cross Section
Small (<0.1 m²)

Expand to show TLE details & history

TLE from 12 hours ago
0 THORAD DELTA 1 DEB
1 08167U 74089AH  25169.76007751  .00003132  00000-0  63489-2 0  9997
2 08167 101.3558 346.5555 0123380  23.6092 353.9141 13.31869140378953
Epoch: 2025-06-18T18:14Z
TLE epoch observation values (Epoch: 2025-06-18T18:14:30.696Z)
Latitude
17.00997°
Longitude
162.18592°
Altitude
1,049.579 km
Speed
7.373 km/s
True Right ascension
22h 52m 12s
True Declination
16° 55' 04"
Sunlit
Object was in daylight at epoch
Visualization orbit readout
Latitude
-69.93867°
Longitude
-160.57836°
Altitude
1,173.718 km
Speed
7.262 km/s
Apparent Right ascension
03h 57m 18s
Apparent Declination
-59° 13' 42"
Sunlit
Object is in daylight
Visualization observer readout
Local Sidereal Time
17:15:20
Azimuth
153.954° SSE
Elevation
-67.103°
Doppler factor
1
Orbital elements
Apogee altitude
1,229.861 km
Perigee altitude
1,044.414 km
Semi-major axis
7,515.275 km
Eccentricity
0.01234
Inclination
101.3558°
RAAN
346.5555°
Arg. of periapsis
23.6092°
True anomaly
Unknown
Mean anomaly
353.9141°
Eccentric anomaly
Unknown
Mean motion
3.33139 °/min
Orbital period
108.06 mins
BSTAR
0.0063489
Loading maneuver chart data...
Loading SW <> Apogee altitude chart data...
Loading historical data...
Loading historical data...
Loading historical data...
Loading historical data...
Loading historical data...
Loading historical data...
Loading historical data...

THORAD DELTA 1 DEB Visibility forecast

Observer location: undefined°, undefined°

Span
Click to sort rows by Start time (UTC) header in descending order
Start Az.
Max El. time (UTC)
Max El. Az.
Max El.
End time (UTC)
End Az.
11 mins2025-06-19 10:30:51.856Z121.064° SE2025-06-19 10:35:51.856Z69.492° E27.571°2025-06-19 10:41:51.856Z2.033° NNE
10 mins2025-06-19 12:17:51.856Z194.39° SSW2025-06-19 12:22:51.856Z268.257° W34.125°2025-06-19 12:27:51.856Z326.871° NNW
10 mins2025-06-19 23:37:51.856Z48.635° ENE2025-06-19 23:42:51.856Z103.96° ESE24.572°2025-06-19 23:47:51.856Z150.854° SSE
11 mins2025-06-20 01:23:51.856Z3.792° NNE2025-06-20 01:28:51.856Z294.291° NW39.649°2025-06-20 01:34:51.856Z219.701° SW
|